Regional Weather Roundup
Issued by NWS

Home | Current Version | Previous Version | Graphics & Text | Print | Product List | Glossary On
Versions: 1 2 3 4 5 6 7 8 9 10 11 12 13 14 15 16 17 18 19 20 21 22 23 24 25 26 27 28 29 30 31 32 33 34 35 36 37 38 39 40 41 42 43 44 45 46 47 48 49 50
756
ASUS43 KMKX 241700
RWRWI

WISCONSIN REGIONAL WEATHER ROUNDUP
NATIONAL WEATHER SERVICE MILWAUKEE/SULLIVAN WI
1100 AM CST FRI FEB 24 2017

NOTE: "FAIR" INDICATES FEW OR NO CLOUDS BELOW 12,000 FEET WITH NO
SIGNIFICANT WEATHER AND/OR OBSTRUCTIONS TO VISIBILITY.

WIZ001-002-006>008-014>016-023>028-241800-
NORTHWEST WISCONSIN

CITY           SKY/WX    TMP DP  RH WIND       PRES   REMARKS
SUPERIOR ARPT  CLOUDY    22  13  69 NE12G18   29.97S WCI  10
ASHLAND        LGT SNOW  20  15  81 N16G25    29.93S WCI   6
HAYWARD        LGT SNOW  22  16  78 NE17G25   29.86S WCI   8
SIREN          CLOUDY    24  17  76 NE13G20   29.89R HAZE    WCI  12
CUMBERLAND     LGT SNOW  25  18  74 NE15G24   29.82S WCI  12
RICE LAKE      LGT SNOW  25  21  83 N13       29.83S WCI  14
CHETEK         LGT SNOW  26  20  80 N10G18    29.81F WCI  15
LADYSMITH      LGT SNOW  26  19  74 N18       29.81R WCI  12
EAU CLAIRE     CLOUDY    27  21  80 N13G22    29.78R FOG     WCI  16
MENOMONIE      LGT SNOW  28  24  83 N14G21    29.79F WCI  17
NEW RICHMOND   LGT SNOW  26  20  75 N17G23    29.83F WCI  14
OSCEOLA        CLOUDY    27  19  71 N14       29.88F WCI  15
$$

WIZ003>005-009-010-017-018-241800-
NORTH CENTRAL WISCONSIN

CITY           SKY/WX    TMP DP  RH WIND       PRES   REMARKS
MANITOWISH WTR LGT SNOW  20  17  90 N8        29.78S WCI  10
ARBOR VITAE    MIX PCPN  22  18  85 NE10        N/A  WCI  11
WOODRUFF       MIX PCPN  22  18  85 NE10        N/A  WCI  11
RHINELANDER    MIX PCPN  23  19  85 NE12G18   29.74R FOG     WCI  12
EAGLE RIVER    CLOUDY    21  16  81 NE15      29.75S HAZE    WCI   7
LAND O LAKES   MIX PCPN  21  17  84 N15       29.78S WCI   7
PHILLIPS       LGT SNOW  21  18  88 N12       29.77S VSB 1   WCI   9
TOMAHAWK       CLOUDY    23  19  83 N10G21    29.75S FOG     WCI  12
MEDFORD        CLOUDY    23  19  83 NE15G28   29.71F FOG     WCI  10
MERRILL        NOT AVBL
$$

WIZ029-030-035-036-043>047-241800-
CENTRAL WISCONSIN

CITY           SKY/WX    TMP DP  RH WIND       PRES   REMARKS
WAUSAU         LGT SNOW  25  21  85 N10       29.69F FOG     WCI  15
MOSINEE        LGT SNOW  25  23  93 N13       29.71R WCI  13
MARSHFIELD     CLOUDY    26  21  81 NE15G26   29.69R HAZE    WCI  14
STEVENS POINT  MIX PCPN  25  22  87 NE15G31   29.69R WCI  12
WAUPACA        CLOUDY    30  25  83 N16G23    29.67R HAZE    WCI  19
WAUTOMA        LGT SNOW  28  27  93 N17G24    29.64S FOG     WCI  16
WISC RAPIDS    LGT SNOW  28  24  85 NE14G25   29.69S FOG     WCI  17
CAMP DOUGLAS   NOT AVBL
$$

WIZ011>013-019>022-031-037>040-048>050-241800-
NORTHEAST WISCONSIN

CITY           SKY/WX    TMP DP  RH WIND       PRES   REMARKS
ANTIGO         CLOUDY    23  19  85 NE17G24   29.71R FOG     WCI   9
SHAWANO        CLOUDY    29  25  85 NE20G25   29.68F FOG     WCI  17
OCONTO         CLOUDY    28  24  85 N15G21    29.69F WCI  16
STURGEON BAY   LGT SNOW  28  25  88 NE17G23   29.67F VSB 1   WCI  16
GREEN BAY      SNOW      28  27  96 NE33G43   29.64F VSB 1/2 WCI  11
MANITOWOC      NOT AVBL
APPLETON       CLOUDY    28  25  86 NE22G30   29.62R FOG     WCI  15
CLINTONVILLE   LGT SNOW  28  25  86 NE15G25   29.66F WCI  17
OSHKOSH        CLOUDY    29  26  89 NE26G36   29.61S FOG     WCI  14
$$

WIZ032>034-041-042-053>061-241800-
SOUTHWEST WISCONSIN

CITY           SKY/WX    TMP DP  RH WIND       PRES   REMARKS
LA CROSSE      LGT SNOW  32  27  81 N13       29.70R VSB 1   WCI  22
SPARTA         LGT SNOW  30  28  92 N12       29.68F WCI  20
VIROQUA        CLOUDY    30  28  92 NE15G23   29.62S WCI  19
BOSCOBEL       FRZ RAIN  32  29  88 NE10      29.62R FOG     WCI  24
PRAIRIE DU CHI CLOUDY    31  30  96 N8        29.61S FOG     WCI  24
PLATTEVILLE    CLOUDY    32  32 100 N10       29.55S WCI  24
$$

WIZ056-057-062-063-064-067-068-241800-
SOUTH CENTRAL WISCONSIN

CITY           SKY/WX    TMP DP  RH WIND       PRES   REMARKS
REEDSBURG      CLOUDY    29  29 100 NE12      29.62R FOG     WCI  19
BARABOO/DELLS  CLOUDY    29  28  94 NE14G20   29.61S FOG     WCI  18
LONE ROCK      NOT AVBL
MINERAL POINT  LGT RAIN  32  32 100 N6        29.55R WCI  26
MADISON        CLOUDY    31  29  92 NE22      29.56R FOG     WCI  18
MIDDLETON      CLOUDY    33  33 100 NE13G18   29.56S WCI  23
WATERTOWN      CLOUDY    32  32 100 NE12G18   29.53F WCI  23
MONROE         CLOUDY    32  32 100 NE22G31   29.50R WCI  19
JANESVILLE     CLOUDY    36  36 100 NE16G22   29.50F FOG     WCI  26
$$

WIZ051-052-058>065-066-070>072-241800-
SOUTHEAST WISCONSIN

CITY           SKY/WX    TMP DP  RH WIND       PRES   REMARKS
MILWAUKEE      CLOUDY    35  33  92 NE15G29   29.51F FOG     WCI  25
WAUKESHA       CLOUDY    30  30 100 NE16G23   29.57S FOG     WCI  19
MILWAUKEE/TIMM LGT RAIN  34  30  86 NE22G33   29.53F WCI  22
RACINE         LGT RAIN  36  34  92 NE16G23   29.52F FOG     WCI  26
KENOSHA        CLOUDY    36  34  92 NE17G25   29.51R FOG     WCI  26
FOND DU LAC    MIX PCPN  32  27  81 NE21G30   29.60R WCI  20
SHEBOYGAN      MIX PCPN  32  30  92 NE32G39   29.57F FOG     WCI  17
WEST BEND      CLOUDY    32  32 100 NE9G18    29.55F FOG     WCI  24
JUNEAU         CLOUDY    31  29  92 NE13G20   29.56F WCI  21
$$

LSZ147-162-241800-
LAKE SUPERIOR

STATION/POSITION TIME  TEMP    WIND        PRES    WAVE
                       AIR SEA DIR/SP/G            HT/PER
                 (UTC) (F)     (DEG/KT/KT) (MB)    (FT/S)
DEVILS ISLAND    1600   18      40/ 25/ 27 1015.9F
PORT WING        1630   22      40/ 20/ 23 1014.2S
SAXON HARBOR     1640   24      30/ 20/ 27 1012.5R
$$

LMZ867-665-643>646-241800-
LAKE MICHIGAN

STATION/POSITION TIME  TEMP    WIND        PRES    WAVE
                       AIR SEA DIR/SP/G            HT/PER
                 (UTC) (F)     (DEG/KT/KT) (MB)    (FT/S)
CHAMBERS ISLAND  1630   27      10/ 27/ 32 1005.8R
NORTHPORT PIER   1640   27      20/ 18/ 28 1006.4F
SISTER BAY       1605   28      10/ 17/ 27   N/A
KEWAUNEE LAKESHO 1630   31      30/ 23/ 32 1003.5F
SHEBOYGAN LAKESH 1600   33      30/ 32/ 36 1002.5F
PORT WASHINGTON  1630   35      30/ 20/ 29 1002.4F
MILWAUKEE LAKESH 1630   34      30/ 23/ 28   N/A
KENOSHA   LAKESH 1600   35      10/ 22/ 24  999.7
$$

TC  - TEMPERATURE IN CELSIUS
VSB - VISIBILITY IN STATUTE MILES
WCI - WIND CHILL INDEX
HX  - HEAT INDEX





USA.gov is the U.S. government's official web portal to all federal, state and local government web resources and services.